DLH3NW EBBR-EDDM

Flight info

Callsign DLH3NW
Flight time 0h 59m
Altitude 33000
Route SOPOK Y863 ROPUV L607 EMGOD DCT MOVUM T109 HAREM T104 ROKIL ROKIL1A
Aircraft A320/M-SDE3FGHIRWY/LB1

Departure

Time 2026-05-04 20:59
Airport Brussels Airport (EBBR)

Arrival

Time 2026-05-04 21:59
Airport Munich Airport (EDDM)
Time Latitude Longitude Altitude Speed Heading
2026-05-04 20:47 50.90211 4.48352 121 ft 0 kts 335°
2026-05-04 20:49 50.90204 4.48358 116 ft 3 kts 336°
2026-05-04 20:49 50.90185 4.48370 118 ft 3 kts 340°
2026-05-04 20:49 50.90166 4.48379 120 ft 3 kts 348°
2026-05-04 20:50 50.90146 4.48384 120 ft 3 kts
2026-05-04 20:50 50.90130 4.48376 123 ft 2 kts 51°
2026-05-04 20:50 50.90126 4.48369 120 ft 0 kts 65°
2026-05-04 20:52 50.90129 4.48376 123 ft 5 kts 65°
2026-05-04 20:52 50.90146 4.48437 124 ft 6 kts 65°
2026-05-04 20:52 50.90169 4.48514 121 ft 10 kts 65°
2026-05-04 20:53 50.90208 4.48651 120 ft 15 kts 66°
2026-05-04 20:53 50.90250 4.48798 124 ft 14 kts 65°
2026-05-04 20:53 50.90291 4.48940 121 ft 14 kts 65°
2026-05-04 20:53 50.90330 4.49074 120 ft 13 kts 65°
2026-05-04 20:54 50.90364 4.49193 123 ft 11 kts 65°
2026-05-04 20:54 50.90393 4.49294 121 ft 9 kts 65°
2026-05-04 20:54 50.90422 4.49393 123 ft 10 kts 65°
2026-05-04 20:54 50.90483 4.49487 121 ft 16 kts 16°
2026-05-04 20:55 50.90602 4.49535 121 ft 19 kts 15°
2026-05-04 20:55 50.90731 4.49588 124 ft 17 kts 14°
2026-05-04 20:55 50.90807 4.49642 122 ft 11 kts 53°
2026-05-04 20:55 50.90839 4.49736 123 ft 9 kts 50°
2026-05-04 20:56 50.90890 4.49772 122 ft 7 kts 15°
2026-05-04 20:56 50.90937 4.49807 121 ft 8 kts 34°
2026-05-04 20:56 50.91000 4.49881 118 ft 15 kts 28°
2026-05-04 20:56 50.91038 4.49909 118 ft 0 kts 25°
2026-05-04 20:57 50.91087 4.49943 120 ft 13 kts 18°
2026-05-04 20:57 50.91142 4.49921 116 ft 3 kts 327°
2026-05-04 20:57 50.91142 4.49901 117 ft 1 kts 258°
2026-05-04 20:58 50.91135 4.49875 118 ft 0 kts 248°
2026-05-04 20:58 50.91135 4.49873 118 ft 2 kts 248°
2026-05-04 20:58 50.91064 4.49625 118 ft 60 kts 245°
2026-05-04 20:59 50.90799 4.48706 120 ft 121 kts 245°
2026-05-04 20:59 50.90360 4.47188 144 ft 168 kts 245°
2026-05-04 20:59 50.89942 4.45820 719 ft 162 kts 247°
2026-05-04 20:59 50.89496 4.44272 1324 ft 165 kts 249°
2026-05-04 21:00 50.89007 4.42452 1799 ft 183 kts 248°
2026-05-04 21:00 50.88179 4.40880 2117 ft 203 kts 206°
2026-05-04 21:00 50.86765 4.40605 2418 ft 220 kts 163°
2026-05-04 21:00 50.85293 4.41680 2806 ft 241 kts 139°
2026-05-04 21:01 50.84125 4.43739 3332 ft 256 kts 124°
2026-05-04 21:01 50.83092 4.46105 4072 ft 265 kts 122°
2026-05-04 21:01 50.82067 4.48546 4928 ft 269 kts 121°
2026-05-04 21:01 50.81026 4.51036 5702 ft 273 kts 122°
2026-05-04 21:02 50.79967 4.53552 6499 ft 276 kts 121°
2026-05-04 21:02 50.79124 4.56273 7284 ft 277 kts 106°
2026-05-04 21:02 50.78524 4.59179 8113 ft 280 kts 107°
2026-05-04 21:02 50.77923 4.62119 8947 ft 283 kts 107°
2026-05-04 21:03 50.77323 4.65072 9769 ft 286 kts 106°
2026-05-04 21:03 50.76709 4.68095 10365 ft 298 kts 106°
2026-05-04 21:03 50.76051 4.71336 10584 ft 321 kts 106°
2026-05-04 21:03 50.75341 4.74816 11108 ft 332 kts 106°
2026-05-04 21:04 50.74633 4.78262 11804 ft 336 kts 107°
2026-05-04 21:04 50.73895 4.81830 12543 ft 340 kts 107°
2026-05-04 21:04 50.73166 4.85357 13260 ft 343 kts 107°
2026-05-04 21:04 50.72419 4.88956 13940 ft 347 kts 107°
2026-05-04 21:05 50.71663 4.92588 14561 ft 350 kts 107°
2026-05-04 21:05 50.70900 4.96257 15185 ft 354 kts 107°
2026-05-04 21:05 50.70130 4.99966 15785 ft 357 kts 108°
2026-05-04 21:05 50.69351 5.03705 16409 ft 360 kts 108°
2026-05-04 21:06 50.68567 5.07467 17009 ft 364 kts 108°
2026-05-04 21:06 50.67773 5.11280 17630 ft 367 kts 108°
2026-05-04 21:06 50.66974 5.15105 18208 ft 371 kts 109°
2026-05-04 21:06 50.66162 5.18973 18645 ft 377 kts 110°
2026-05-04 21:07 50.65328 5.22935 19148 ft 380 kts 110°
2026-05-04 21:07 50.64490 5.26911 19688 ft 383 kts 110°
2026-05-04 21:07 50.63663 5.30841 20198 ft 385 kts 110°
2026-05-04 21:07 50.62816 5.34864 20736 ft 387 kts 110°
2026-05-04 21:08 50.61965 5.38897 21216 ft 390 kts 110°
2026-05-04 21:08 50.61105 5.42962 21718 ft 392 kts 110°
2026-05-04 21:08 50.60237 5.47035 22213 ft 395 kts 111°
2026-05-04 21:08 50.59357 5.51143 22707 ft 397 kts 111°
2026-05-04 21:09 50.58471 5.55272 23179 ft 399 kts 111°
2026-05-04 21:09 50.57581 5.59417 23624 ft 402 kts 111°
2026-05-04 21:09 50.56685 5.63595 24004 ft 405 kts 111°
2026-05-04 21:09 50.55785 5.67806 24368 ft 407 kts 112°
2026-05-04 21:10 50.54876 5.72042 24735 ft 410 kts 112°
2026-05-04 21:10 50.53957 5.76308 25100 ft 413 kts 112°
2026-05-04 21:10 50.53041 5.80539 25450 ft 415 kts 112°
2026-05-04 21:10 50.52095 5.84901 25805 ft 418 kts 112°
2026-05-04 21:11 50.51168 5.89166 26152 ft 420 kts 112°
2026-05-04 21:11 50.50217 5.93534 26496 ft 423 kts 112°
2026-05-04 21:11 50.49259 5.97920 26825 ft 426 kts 113°
2026-05-04 21:11 50.48296 6.02328 27123 ft 429 kts 113°
2026-05-04 21:12 50.47324 6.06776 27460 ft 431 kts 114°
2026-05-04 21:12 50.46347 6.11240 27833 ft 433 kts 114°
2026-05-04 21:12 50.45365 6.15720 28183 ft 435 kts 114°
2026-05-04 21:12 50.44376 6.20216 28522 ft 437 kts 114°
2026-05-04 21:13 50.43378 6.24727 28858 ft 439 kts 114°
2026-05-04 21:13 50.42371 6.29264 29194 ft 442 kts 114°
2026-05-04 21:13 50.41354 6.33830 29518 ft 444 kts 114°
2026-05-04 21:13 50.40348 6.38342 29836 ft 446 kts 114°
2026-05-04 21:14 50.39325 6.42945 30128 ft 448 kts 115°
2026-05-04 21:14 50.38297 6.47553 30359 ft 450 kts 115°
2026-05-04 21:14 50.37263 6.52181 30642 ft 450 kts 115°
2026-05-04 21:14 50.36226 6.56818 30909 ft 452 kts 115°
2026-05-04 21:15 50.35185 6.61459 31163 ft 453 kts 115°
2026-05-04 21:15 50.34137 6.66114 31484 ft 453 kts 115°
2026-05-04 21:15 50.33089 6.70761 31823 ft 453 kts 115°
2026-05-04 21:15 50.32055 6.75346 32146 ft 452 kts 115°
2026-05-04 21:16 50.31004 6.79989 32466 ft 452 kts 115°
2026-05-04 21:16 50.29949 6.84623 32798 ft 452 kts 115°
2026-05-04 21:16 50.28895 6.89249 32973 ft 451 kts 115°
2026-05-04 21:16 50.27857 6.93813 32998 ft 441 kts 115°
2026-05-04 21:17 50.25808 7.02785 32998 ft 437 kts 115°
2026-05-04 21:17 50.23758 7.11712 32999 ft 436 kts 115°
2026-05-04 21:18 50.21713 7.20570 33001 ft 436 kts 116°
2026-05-04 21:18 50.19646 7.29459 32999 ft 436 kts 116°
2026-05-04 21:19 50.17577 7.38353 32965 ft 435 kts 115°
2026-05-04 21:19 50.15503 7.47216 32975 ft 435 kts 115°
2026-05-04 21:20 50.13420 7.56075 32975 ft 435 kts 116°
2026-05-04 21:20 50.11334 7.64909 32975 ft 434 kts 116°
2026-05-04 21:21 50.09245 7.73740 32977 ft 434 kts 116°
2026-05-04 21:21 50.07148 7.82560 32957 ft 434 kts 115°
2026-05-04 21:22 50.05046 7.91365 32968 ft 434 kts 115°
2026-05-04 21:22 50.02954 8.00118 32977 ft 435 kts 116°
2026-05-04 21:23 50.00828 8.08975 32983 ft 434 kts 116°
2026-05-04 21:23 49.98466 8.17482 32989 ft 425 kts 128°
2026-05-04 21:24 49.95263 8.25208 32967 ft 425 kts 128°
2026-05-04 21:24 49.92017 8.32926 32954 ft 425 kts 128°
2026-05-04 21:25 49.88809 8.40541 32958 ft 425 kts 128°
2026-05-04 21:25 49.85579 8.48208 32966 ft 424 kts 128°
2026-05-04 21:26 49.82353 8.55850 32972 ft 424 kts 128°
2026-05-04 21:26 49.79116 8.63497 32974 ft 424 kts 128°
2026-05-04 21:27 49.75880 8.71103 32976 ft 424 kts 128°
2026-05-04 21:27 49.72635 8.78714 32974 ft 423 kts 128°
2026-05-04 21:28 49.69395 8.86307 32973 ft 423 kts 128°
2026-05-04 21:28 49.66151 8.93882 32973 ft 423 kts 129°
2026-05-04 21:29 49.62895 9.01458 32970 ft 423 kts 129°
2026-05-04 21:29 49.59638 9.09011 32960 ft 423 kts 129°
2026-05-04 21:30 49.56380 9.16548 32973 ft 422 kts 129°
2026-05-04 21:30 49.53140 9.24016 32982 ft 422 kts 129°
2026-05-04 21:31 49.48238 9.35281 32984 ft 422 kts 129°
2026-05-04 21:31 49.46609 9.39016 32690 ft 419 kts 129°
2026-05-04 21:32 49.44999 9.42711 32264 ft 412 kts 129°
2026-05-04 21:32 49.43370 9.46293 31876 ft 405 kts 131°
2026-05-04 21:32 49.41679 9.49712 31497 ft 399 kts 133°
2026-05-04 21:32 49.39954 9.53019 31124 ft 395 kts 134°
2026-05-04 21:33 49.38221 9.56270 30744 ft 392 kts 135°
2026-05-04 21:33 49.36501 9.59492 30376 ft 389 kts 134°
2026-05-04 21:33 49.35374 9.61617 30133 ft 387 kts 134°
2026-05-04 21:33 49.33150 9.65858 29571 ft 384 kts 134°
2026-05-04 21:34 49.31487 9.69064 29152 ft 382 kts 133°
2026-05-04 21:34 49.29845 9.72243 28737 ft 380 kts 133°
2026-05-04 21:34 49.28209 9.75408 28328 ft 378 kts 133°
2026-05-04 21:34 49.27130 9.77492 28061 ft 377 kts 133°
2026-05-04 21:35 49.25508 9.80621 27648 ft 375 kts 133°
2026-05-04 21:35 49.23876 9.83766 27250 ft 373 kts 133°
2026-05-04 21:35 49.22258 9.86881 26860 ft 371 kts 133°
2026-05-04 21:35 49.20648 9.89973 26461 ft 370 kts 133°
2026-05-04 21:36 49.19071 9.92996 26097 ft 368 kts 133°
2026-05-04 21:36 49.17481 9.96046 25730 ft 366 kts 133°
2026-05-04 21:36 49.15894 9.99084 25366 ft 364 kts 133°
2026-05-04 21:36 49.14316 10.02090 25005 ft 363 kts 133°
2026-05-04 21:37 49.12720 10.05130 24640 ft 361 kts 133°
2026-05-04 21:37 49.11169 10.08083 24292 ft 360 kts 133°
2026-05-04 21:37 49.09608 10.11054 23936 ft 358 kts 133°
2026-05-04 21:37 49.08053 10.14008 23595 ft 357 kts 132°
2026-05-04 21:38 49.06731 10.17215 23183 ft 361 kts 117°
2026-05-04 21:38 49.05818 10.20796 22770 ft 361 kts 114°
2026-05-04 21:38 49.04941 10.24315 22369 ft 360 kts 114°
2026-05-04 21:38 49.04058 10.27875 21976 ft 358 kts 114°
2026-05-04 21:39 49.03180 10.31418 21589 ft 356 kts 114°
2026-05-04 21:39 49.02309 10.34930 21194 ft 353 kts 114°
2026-05-04 21:39 49.01441 10.38418 20814 ft 351 kts 114°
2026-05-04 21:39 49.00574 10.41883 20445 ft 349 kts 114°
2026-05-04 21:40 48.99710 10.45319 20085 ft 346 kts 114°
2026-05-04 21:40 48.98851 10.48735 19721 ft 344 kts 114°
2026-05-04 21:40 48.98009 10.52081 19365 ft 342 kts 114°
2026-05-04 21:40 48.97159 10.55455 19009 ft 340 kts 114°
2026-05-04 21:41 48.96317 10.58800 18652 ft 338 kts 114°
2026-05-04 21:41 48.95472 10.62147 18295 ft 339 kts 114°
2026-05-04 21:41 48.94626 10.65489 17899 ft 338 kts 114°
2026-05-04 21:41 48.93783 10.68819 17498 ft 337 kts 114°
2026-05-04 21:42 48.92944 10.72130 17103 ft 335 kts 114°
2026-05-04 21:42 48.92106 10.75431 16719 ft 334 kts 114°
2026-05-04 21:42 48.91270 10.78718 16338 ft 332 kts 114°
2026-05-04 21:42 48.90451 10.81930 16067 ft 328 kts 114°
2026-05-04 21:43 48.89631 10.85143 15785 ft 325 kts 114°
2026-05-04 21:43 48.88814 10.88340 15508 ft 323 kts 114°
2026-05-04 21:43 48.88006 10.91505 15237 ft 321 kts 114°
2026-05-04 21:43 48.87189 10.94701 14947 ft 319 kts 114°
2026-05-04 21:44 48.86387 10.97835 14681 ft 317 kts 114°
2026-05-04 21:44 48.85592 11.00941 14402 ft 316 kts 114°
2026-05-04 21:44 48.84801 11.04022 14143 ft 317 kts 114°
2026-05-04 21:44 48.83997 11.07137 13882 ft 317 kts 115°
2026-05-04 21:45 48.83196 11.10238 13603 ft 315 kts 115°
2026-05-04 21:45 48.82397 11.13331 13311 ft 314 kts 115°
2026-05-04 21:45 48.81605 11.16399 13021 ft 312 kts 115°
2026-05-04 21:45 48.80814 11.19460 12735 ft 310 kts 115°
2026-05-04 21:46 48.80028 11.22490 12453 ft 309 kts 115°
2026-05-04 21:46 48.79239 11.25511 12164 ft 307 kts 115°
2026-05-04 21:46 48.78456 11.28513 11884 ft 305 kts 115°
2026-05-04 21:46 48.77677 11.31498 11613 ft 303 kts 115°
2026-05-04 21:47 48.76906 11.34463 11360 ft 302 kts 115°
2026-05-04 21:47 48.76148 11.37378 11120 ft 301 kts 115°
2026-05-04 21:47 48.75372 11.40351 10861 ft 299 kts 115°
2026-05-04 21:47 48.74603 11.43295 10614 ft 301 kts 115°
2026-05-04 21:48 48.73829 11.46248 10373 ft 301 kts 115°
2026-05-04 21:48 48.73058 11.49184 10129 ft 300 kts 115°
2026-05-04 21:48 48.72292 11.52094 9884 ft 297 kts 115°
2026-05-04 21:48 48.71529 11.54992 9627 ft 295 kts 115°
2026-05-04 21:49 48.70770 11.57873 9394 ft 294 kts 115°
2026-05-04 21:49 48.70014 11.60742 9160 ft 293 kts 115°
2026-05-04 21:49 48.69262 11.63595 8933 ft 292 kts 115°
2026-05-04 21:49 48.68513 11.66435 8694 ft 291 kts 115°
2026-05-04 21:50 48.67761 11.69280 8467 ft 290 kts 115°
2026-05-04 21:50 48.67013 11.72108 8237 ft 289 kts 115°
2026-05-04 21:50 48.66269 11.74919 8006 ft 288 kts 114°
2026-05-04 21:50 48.65535 11.77689 7783 ft 287 kts 114°
2026-05-04 21:51 48.64783 11.80520 7549 ft 286 kts 114°
2026-05-04 21:51 48.64038 11.83245 7332 ft 283 kts 114°
2026-05-04 21:51 48.63279 11.85986 7103 ft 282 kts 114°
2026-05-04 21:51 48.62522 11.88716 6892 ft 282 kts 114°
2026-05-04 21:52 48.61762 11.91440 6658 ft 281 kts 116°
2026-05-04 21:52 48.60679 11.93842 6445 ft 276 kts 136°
2026-05-04 21:52 48.59271 11.95796 6224 ft 274 kts 147°
2026-05-04 21:52 48.57602 11.97134 5993 ft 270 kts 158°
2026-05-04 21:53 48.55897 11.98202 5761 ft 261 kts 159°
2026-05-04 21:53 48.54232 11.99211 5537 ft 253 kts 159°
2026-05-04 21:53 48.52606 12.00099 5316 ft 245 kts 163°
2026-05-04 21:53 48.50995 12.00841 5111 ft 239 kts 164°
2026-05-04 21:54 48.49418 12.01545 4889 ft 235 kts 164°
2026-05-04 21:54 48.47851 12.02234 4670 ft 233 kts 165°
2026-05-04 21:54 48.46292 12.02911 4444 ft 234 kts 165°
2026-05-04 21:54 48.44730 12.03584 4221 ft 233 kts 165°
2026-05-04 21:55 48.43192 12.04243 4058 ft 230 kts 164°
2026-05-04 21:55 48.41686 12.04833 3999 ft 217 kts 174°
2026-05-04 21:55 48.40274 12.04494 4014 ft 201 kts 205°
2026-05-04 21:55 48.39133 12.03314 4051 ft 194 kts 224°
2026-05-04 21:56 48.38354 12.01661 3944 ft 191 kts 245°
2026-05-04 21:56 48.38015 11.99792 3755 ft 186 kts 262°
2026-05-04 21:56 48.37874 11.97884 3535 ft 182 kts 263°
2026-05-04 21:56 48.37736 11.96028 3314 ft 175 kts 263°
2026-05-04 21:57 48.37604 11.94264 3092 ft 165 kts 264°
2026-05-04 21:57 48.37481 11.92623 2891 ft 154 kts 264°
2026-05-04 21:57 48.37363 11.91048 2694 ft 150 kts 264°
2026-05-04 21:57 48.37249 11.89514 2500 ft 149 kts 264°
2026-05-04 21:58 48.37130 11.87961 2278 ft 146 kts 263°
2026-05-04 21:58 48.37018 11.86464 2064 ft 143 kts 264°
2026-05-04 21:58 48.36908 11.84997 1887 ft 140 kts 264°
2026-05-04 21:58 48.36792 11.83551 1718 ft 138 kts 264°
2026-05-04 21:59 48.36689 11.82134 1540 ft 135 kts 264°
2026-05-04 21:59 48.36587 11.80804 1485 ft 102 kts 263°
2026-05-04 21:59 48.36529 11.80076 1485 ft 39 kts 261°
2026-05-04 21:59 48.36474 11.79778 1483 ft 25 kts 244°
2026-05-04 22:00 48.36380 11.79562 1477 ft 24 kts 232°
2026-05-04 22:00 48.36287 11.79378 1481 ft 22 kts 234°
2026-05-04 22:00 48.36267 11.79337 1471 ft 2 kts 231°
2026-05-04 22:00 48.36231 11.79300 1477 ft 13 kts 201°
2026-05-04 22:01 48.36133 11.79309 1472 ft 14 kts 172°
2026-05-04 22:01 48.36042 11.79324 1483 ft 10 kts 173°
2026-05-04 22:01 48.36030 11.79326 1481 ft 9 kts 174°
2026-05-04 22:02 48.35995 11.79333 1480 ft 8 kts 173°
2026-05-04 22:02 48.35943 11.79344 1485 ft 7 kts 165°
2026-05-04 22:02 48.35884 11.79379 1478 ft 9 kts 167°
2026-05-04 22:03 48.35820 11.79390 1481 ft 9 kts 174°
2026-05-04 22:03 48.35765 11.79400 1480 ft 7 kts 173°
2026-05-04 22:03 48.35724 11.79395 1485 ft 5 kts 220°
2026-05-04 22:03 48.35719 11.79352 1485 ft 5 kts 264°
2026-05-04 22:04 48.35714 11.79291 1480 ft 4 kts 263°
2026-05-04 22:04 48.35713 11.79271 1480 ft 1 kts 263°
2026-05-04 22:04 48.35713 11.79268 1481 ft 0 kts 263°